Date String (YYYY-MM-DD hh:mm:ss) UTC,Instrument flags,Ambient pressure (hPa),Sample flow (lpm),Bypass flow (lpm),Sample temperature (°C),Ambient temperature (°C),ASC tube jacket temperature (°C),LED temperature (°C),Box temperature (°C),Sample RH (%),Span deviation,Mass concentration (μg/m³),Mass concentration (μg/m³),Mass concentration (μg/m³)
DateTimeUTC,F1_M11,P_M11,Q1_M11,Q2_M11,T1_M11,T2_M11,T3_M11,T4_M11,T5_M11,U1_M11,ZSPAN_M11,X0_M11,X2_M11,X1_M11
2023-04-11 12:00:00,,0832.3,5.01,0.00,25.5,23.6,00.0,33.8,26.9,11.8,0000.0,0009.36,0003.17,0001.73
2023-04-11 12:01:00,,0832.3,5.01,0.00,25.4,23.6,00.0,33.8,26.9,11.8,0000.0,0009.33,0003.19,0001.74
2023-04-11 12:02:00,,0832.3,5.00,0.00,25.4,23.6,00.0,33.8,26.9,11.9,0000.0,0009.45,0003.22,0001.76
2023-04-11 12:03:00,,0832.2,5.01,0.00,25.4,23.6,00.0,33.8,26.9,11.9,0000.0,0009.60,0003.29,0001.81
2023-04-11 12:04:00,,0832.2,5.00,0.00,25.4,23.5,00.0,33.8,26.9,11.9,0000.0,0009.69,0003.35,0001.84
2023-04-11 12:05:00,,0832.2,5.00,0.00,25.4,23.5,00.0,33.8,26.8,11.9,0000.0,0009.88,0003.46,0001.86
2023-04-11 12:06:00,,0832.2,5.00,0.00,25.4,23.5,00.0,33.7,26.8,11.9,0000.0,0010.18,0003.57,0001.90
2023-04-11 12:07:00,,0832.2,4.99,0.00,25.4,23.5,00.0,33.7,26.8,11.9,0000.0,0009.93,0003.57,0001.93
2023-04-11 12:08:00,,0832.2,5.00,0.00,25.3,23.5,00.0,33.7,26.8,11.8,0000.0,0009.37,0003.58,0001.95
2023-04-11 12:09:00,,0832.1,5.00,0.00,25.3,23.5,00.0,33.7,26.8,11.8,0000.0,0009.92,0003.63,0001.97
2023-04-11 12:10:00,,0832.2,5.01,0.00,25.3,23.5,00.0,33.7,26.8,11.9,0000.0,0010.52,0003.70,0001.96
2023-04-11 12:11:00,,0832.2,5.01,0.00,25.3,23.5,00.0,33.7,26.8,11.9,0000.0,0010.01,0003.72,0001.96
2023-04-11 12:12:00,,0832.2,5.01,0.00,25.3,23.5,00.0,33.7,26.8,11.9,0000.0,0010.37,0003.75,0001.97
2023-04-11 12:13:00,,0832.2,5.00,0.00,25.3,23.5,00.0,33.7,26.8,11.9,0000.0,0010.65,0003.74,0001.98
2023-04-11 12:14:00,,0832.1,5.00,0.00,25.3,23.5,00.0,33.7,26.8,11.9,0000.0,0010.80,0003.77,0001.98
2023-04-11 12:15:00,,0832.2,5.00,0.00,25.3,23.5,00.0,33.7,26.8,11.9,0000.0,0010.97,0003.79,0002.00
2023-04-11 12:16:00,,0832.2,5.00,0.00,25.3,23.5,00.0,33.6,26.8,11.9,0000.0,0011.74,0003.83,0002.01
2023-04-11 12:17:00,,0832.2,5.00,0.00,25.3,23.5,00.0,33.6,26.8,11.9,0000.0,0011.59,0003.79,0002.01
2023-04-11 12:18:00,,0832.2,5.00,0.00,25.3,23.5,00.0,33.6,26.8,11.9,0000.0,0011.47,0003.78,0002.01
2023-04-11 12:19:00,,0832.3,5.00,0.00,25.3,23.5,00.0,33.6,26.8,11.9,0000.0,0011.35,0003.77,0002.01
2023-04-11 12:20:00,,0832.3,5.01,0.00,25.2,23.5,00.0,33.6,26.7,11.9,0000.0,0011.02,0003.73,0002.01
2023-04-11 12:21:00,,0832.3,5.00,0.00,25.2,23.5,00.0,33.6,26.7,11.9,0000.0,0010.43,0003.68,0002.01
2023-04-11 12:22:00,,0832.2,5.00,0.00,25.2,23.4,00.0,33.6,26.7,11.9,0000.0,0010.53,0003.71,0002.04
2023-04-11 12:23:00,,0832.2,5.00,0.00,25.2,23.4,00.0,33.6,26.7,11.9,0000.0,0010.47,0003.74,0002.05
2023-04-11 12:24:00,,0832.2,5.00,0.00,25.2,23.4,00.0,33.6,26.7,11.9,0000.0,0010.22,0003.74,0002.04
2023-04-11 12:25:00,,0832.2,5.00,0.00,25.2,23.4,00.0,33.6,26.7,11.9,0000.0,0010.60,0003.69,0002.05
2023-04-11 12:26:00,,0832.2,5.00,0.00,25.2,23.4,00.0,33.6,26.7,11.9,0000.0,0010.95,0003.74,0002.07
2023-04-11 12:27:00,,0832.2,4.99,0.00,25.2,23.4,00.0,33.5,26.7,12.0,0000.0,0010.37,0003.70,0002.07
2023-04-11 12:28:00,,0832.3,5.00,0.00,25.2,23.4,00.0,33.5,26.7,12.0,0000.0,0010.65,0003.67,0002.09
2023-04-11 12:29:00,,0832.3,5.00,0.00,25.2,23.4,00.0,33.5,26.7,12.0,0000.0,0010.89,0003.69,0002.09
2023-04-11 12:30:00,,0832.3,5.01,0.00,25.2,23.4,00.0,33.5,26.7,12.0,0000.0,0010.77,0003.69,0002.11
2023-04-11 12:31:00,,0832.4,5.00,0.00,25.2,23.5,00.0,33.5,26.7,12.0,0000.0,0010.75,0003.69,0002.13
2023-04-11 12:32:00,,0832.4,5.00,0.00,25.2,23.5,00.0,33.5,26.7,11.9,0000.0,0010.88,0003.67,0002.15
2023-04-11 12:33:00,,0832.4,5.01,0.00,25.2,23.5,00.0,33.5,26.7,12.0,0000.0,0011.05,0003.67,0002.16
2023-04-11 12:34:00,,0832.3,5.00,0.00,25.2,23.5,00.0,33.5,26.7,12.0,0000.0,0011.13,0003.65,0002.16
2023-04-11 12:35:00,,0832.3,4.99,0.00,25.2,23.5,00.0,33.5,26.7,12.1,0000.0,0010.96,0003.64,0002.18
2023-04-11 12:36:00,,0832.3,4.99,0.00,25.2,23.5,00.0,33.5,26.8,12.0,0000.0,0010.75,0003.67,0002.19
2023-04-11 12:37:00,,0832.3,5.00,0.00,25.2,23.5,00.0,33.5,26.7,12.0,0000.0,0010.13,0003.63,0002.16
2023-04-11 12:38:00,,0832.3,5.01,0.00,25.2,23.5,00.0,33.5,26.7,12.0,0000.0,0009.95,0003.60,0002.17
2023-04-11 12:39:00,,0832.3,5.00,0.00,25.2,23.5,00.0,33.5,26.8,12.0,0000.0,0009.68,0003.59,0002.16
2023-04-11 12:40:00,,0832.3,4.99,0.00,25.2,23.5,00.0,33.5,26.8,12.0,0000.0,0010.12,0003.61,0002.16
2023-04-11 12:41:00,,0832.3,4.99,0.00,25.2,23.5,00.0,33.5,26.8,12.0,0000.0,0010.85,0003.63,0002.15
2023-04-11 12:42:00,,0832.3,5.00,0.00,25.2,23.5,00.0,33.5,26.7,11.9,0000.0,0011.88,0003.65,0002.12
2023-04-11 12:43:00,,0832.3,5.01,0.00,25.2,23.5,00.0,33.5,26.8,11.9,0000.0,0012.88,0003.69,0002.12
2023-04-11 12:44:00,,0832.3,5.00,0.00,25.2,23.5,00.0,33.5,26.8,11.9,0000.0,0012.65,0003.70,0002.13
2023-04-11 12:45:00,,0832.3,5.00,0.00,25.2,23.5,00.0,33.5,26.8,11.9,0000.0,0012.58,0003.72,0002.12
2023-04-11 12:46:00,,0832.4,4.99,0.00,25.2,23.5,00.0,33.5,26.7,12.0,0000.0,0012.85,0003.73,0002.11
2023-04-11 12:47:00,,0832.4,5.00,0.00,25.2,23.5,00.0,33.5,26.8,11.9,0000.0,0013.21,0003.74,0002.10
2023-04-11 12:48:00,,0832.3,5.01,0.00,25.2,23.5,00.0,33.5,26.7,11.9,0000.0,0013.60,0003.77,0002.11
2023-04-11 12:49:00,,0832.3,5.01,0.00,25.2,23.5,00.0,33.5,26.7,11.9,0000.0,0014.48,0003.80,0002.10
2023-04-11 12:50:00,,0832.4,4.99,0.00,25.2,23.5,00.0,33.5,26.8,11.8,0000.0,0014.67,0003.79,0002.06
2023-04-11 12:51:00,,0832.4,5.00,0.00,25.2,23.5,00.0,33.5,26.8,11.8,0000.0,0014.32,0003.75,0002.05
2023-04-11 12:52:00,,0832.4,5.00,0.00,25.2,23.5,00.0,33.5,26.8,11.8,0000.0,0013.98,0003.71,0002.03
2023-04-11 12:53:00,,0832.4,5.01,0.00,25.2,23.5,00.0,33.5,26.8,11.8,0000.0,0013.13,0003.67,0001.99
2023-04-11 12:54:00,,0832.4,5.00,0.00,25.2,23.5,00.0,33.5,26.7,11.7,0000.0,0012.15,0003.63,0001.97
2023-04-11 12:55:00,,0832.3,5.00,0.00,25.2,23.5,00.0,33.5,26.7,11.7,0000.0,0011.70,0003.57,0001.91
2023-04-11 12:56:00,,0832.4,4.99,0.00,25.2,23.5,00.0,33.5,26.8,11.6,0000.0,0011.71,0003.53,0001.87
2023-04-11 12:57:00,,0832.4,5.00,0.00,25.2,23.5,00.0,33.5,26.8,11.6,0000.0,0012.23,0003.52,0001.84
2023-04-11 12:58:00,,0832.4,4.99,0.00,25.2,23.5,00.0,33.5,26.8,11.5,0000.0,0012.81,0003.53,0001.82
2023-04-11 12:59:00,,0832.4,5.03,0.00,25.2,23.5,00.0,33.5,26.8,11.7,0000.0,0012.98,0003.47,0001.79
